Location: Unspecified
(0.0000°N, 0.0000°E)
Time: 02:14:56
(UTC+00:00)

Envisat - Visible Passes

Search period start: 20 September 2018 00:00
Search period end: 30 September 2018 00:00
Orbit: 764 x 766 km, 98.2° (Epoch: 19 September)

Date Brightness Start Highest point End Pass type
(mag) Time Alt. Az. Time Alt. Az. Time Alt. Az.
20 Sep 4.8 18:21:13 10° E 18:22:29 11° ENE 18:23:43 10° ENE visible
20 Sep 4.1 19:56:27 10° S 20:01:12 41° WSW 20:05:58 10° NNW visible
21 Sep 2.8 19:19:31 10° SSE 19:24:34 68° ENE 19:29:36 10° N visible
22 Sep 4.0 18:43:56 10° SE 18:47:56 24° ENE 18:51:56 10° NNE visible
22 Sep 5.3 20:23:01 10° SSW 20:26:41 20° WSW 20:30:20 10° NW visible
23 Sep 3.5 19:45:05 10° S 19:50:04 57° WSW 19:55:01 10° NNW visible
24 Sep 3.1 19:08:32 10° SSE 19:13:26 49° ENE 19:18:18 10° N visible
25 Sep 4.3 18:33:31 10° ESE 18:36:48 17° ENE 18:40:04 10° NE visible
25 Sep 4.9 20:11:18 10° SSW 20:15:32 27° WSW 20:19:47 10° NW visible
26 Sep 3.0 19:33:50 10° S 19:38:55 79° WSW 19:43:58 10° NNW visible
27 Sep 3.5 18:57:39 10° SE 19:02:17 36° ENE 19:06:53 10° NNE visible
27 Sep 5.8 20:38:47 10° SW 20:41:00 13° WSW 20:43:14 10° WNW visible
28 Sep 4.6 18:23:33 10° ESE 18:25:40 13° ENE 18:27:45 10° NE visible
28 Sep 4.3 19:59:45 10° SSW 20:04:24 37° WSW 20:09:02 10° NW visible
29 Sep 2.8 19:22:41 10° SSE 19:27:46 77° ENE 19:32:49 10° N visible
